Regional Weather Roundup
Issued by NWS

Home | Current Version | Previous Version | Text Only | Print | Product List | Glossary Off
Versions: 1 2 3 4 5 6 7 8 9 10 11 12 13 14 15 16 17 18 19 20 21 22 23 24 25 26 27 28 29 30 31 32 33 34 35 36 37 38 39 40 41 42 43 44 45 46 47 48 49 50

000
ASUS43 KBIS 250102
RWRND

NORTH DAKOTA REGIONAL WEATHER ROUNDUP
NATIONAL WEATHER SERVICE BISMARCK ND
700 PM CST FRI FEB 24 2017

NOTE: "FAIR" INDICATES FEW OR NO CLOUDS BELOW 12,000 FEET WITH NO
SIGNIFICANT WEATHER AND/OR OBSTRUCTIONS TO VISIBILITY.


NDZ001>003-009>011-017-250200-
NORTHWEST NORTH DAKOTA

CITY           SKY/WX    TMP DP  RH WIND       PRES   REMARKS
WILLISTON      MOCLDY    24  14  65 SW3       30.09S
MINOT          CLOUDY    26  19  74 CALM      30.08S
$$

NDZ018>021-031>035-040>046-250200-
SOUTHWEST NORTH DAKOTA

CITY           SKY/WX    TMP DP  RH WIND       PRES   REMARKS
BISMARCK       CLOUDY    27  16  63 NW5       30.12S
DICKINSON      CLOUDY    21  15  78 SW3       30.04F
GARRISON         N/A     22  15  75 W3        30.09S
HETTINGER ARPT CLOUDY    24  17  74 E5        30.07S WCI  18
$$

NDZ004>008-012>016-024-026-027-054-250200-
NORTHEAST NORTH DAKOTA

CITY           SKY/WX    TMP DP  RH WIND       PRES   REMARKS
GRAND FORKS    PTCLDY    17   9  70 N8        30.12F WCI   7
GRND FRKS AFB  CLEAR     16  10  76 VRB7      30.13R WCI   6
DEVILS LAKE    FAIR      18  13  80 NW6       30.10F WCI  10
$$

NDZ022-023-025-028>030-036>039-047>053-250200-
SOUTHEAST NORTH DAKOTA

CITY           SKY/WX    TMP DP  RH WIND       PRES   REMARKS
FARGO          CLEAR     20  12  71 N18       30.09S WCI   5
JAMESTOWN      FAIR      21  15  78 NW12      30.09R WCI   9
$$





USA.gov is the U.S. government's official web portal to all federal, state and local government web resources and services.